{"data":{"norad_id":36110,"intl_designator":"2009-069A","name":"YAOGAN-7","alt_names":[],"object_type":"PAYLOAD","status":"ACTIVE","operator":null,"country":"PRC","launch_date":"2009-12-09","launch_site_code":"JSC","launch_vehicle":null,"mission":null,"orbit_class":"UNKNOWN","rcs_meters":3.3259,"size_class":null,"mass_kg":null,"dimensions":null,"purposes":["earth_obs"],"wikipedia_slug":null,"has_3d_model":false,"image_url":null,"decayed_at":null,"tle_current":{"epoch":"2026-09-20T00:01:39.373824Z","epoch_age_seconds":57542,"freshness":"FRESH","line1":"1 36110U 09069A   26263.00115016  .00000242  00000+0  40639-4 0  9991","line2":"2 36110  97.9909 148.2105 0025949  93.1010 267.3171 14.78081374903631","mean_motion":14.78081374,"eccentricity":0.0025949,"inclination_deg":97.9909,"raan_deg":148.2105,"arg_perigee_deg":93.101,"mean_anomaly_deg":267.3171,"bstar":4.0639e-5,"rev_number":90363,"period_min":97.423594216809,"perigee_km":617.18746165659,"apogee_km":653.58624775775,"semimajor_km":7013.5238547072,"source":"CELESTRAK","updated_at":"2026-09-20T09:00:33.890758Z"}}}